| time (UTC) | temp F | wind direction | speed knots | gust knots | rain 1hr in | rain 24hr in | rain mn in | humidity % | barometer mb |
| 20260505010049 | 68 | 183 | 4.3 | 8.7 | 0.00 | 0.00 | 0.00 | 67 | 972.6 |
| 20260505004547 | 69 | 205 | 5.2 | 8.7 | 0.00 | 0.00 | 0.00 | 67 | 972.7 |
| 20260505003046 | 70 | 202 | 7.0 | 13.0 | 0.00 | 0.00 | 0.00 | 66 | 972.7 |
| 20260505001546 | 70 | 208 | 8.7 | 14.8 | 0.00 | 0.00 | 0.00 | 65 | 972.6 |
| 20260505000049 | 71 | 198 | 8.7 | 14.8 | 0.00 | 0.00 | 0.00 | 64 | 972.5 |
| 20260504234545 | 71 | 196 | 8.7 | 18.2 | 0.00 | 0.00 | 0.00 | 62 | 972.5 |
| 20260504233045 | 72 | 188 | 10.4 | 18.2 | 0.00 | 0.00 | 0.00 | 60 | 972.6 |
| 20260504231543 | 73 | 184 | 12.2 | 20.9 | 0.00 | 0.00 | 0.00 | 58 | 972.7 |
| 20260504230042 | 73 | 196 | 13.9 | 19.1 | 0.00 | 0.00 | 0.00 | 56 | 972.9 |
| 20260504224542 | 73 | 223 | 14.8 | 23.5 | 0.00 | 0.00 | 0.00 | 55 | 973.1 |
| 20260504223041 | 73 | 225 | 15.6 | 26.9 | 0.00 | 0.00 | 0.00 | 53 | 973.4 |
| 20260504221543 | 74 | 240 | 16.5 | 34.8 | 0.00 | 0.00 | 0.00 | 51 | 973.4 |
| 20260504220048 | 75 | 204 | 17.4 | 27.8 | 0.00 | 0.00 | 0.00 | 48 | 973.3 |
| 20260504214549 | 75 | 227 | 21.7 | 30.4 | 0.00 | 0.00 | 0.00 | 47 | 973.1 |
| 20260504213047 | 76 | 215 | 19.1 | 26.9 | 0.00 | 0.00 | 0.00 | 47 | 973.1 |
| 20260504211538 | 77 | 209 | 17.4 | 28.7 | 0.00 | 0.00 | 0.00 | 46 | 972.9 |
| 20260504210037 | 76 | 221 | 18.2 | 26.1 | 0.00 | 0.00 | 0.00 | 47 | 972.8 |
| 20260504204536 | 75 | 236 | 19.1 | 26.9 | 0.00 | 0.00 | 0.00 | 52 | 972.9 |
| 20260504203035 | 76 | 202 | 15.6 | 26.9 | 0.00 | 0.00 | 0.00 | 53 | 972.8 |
| 20260504201534 | 76 | 215 | 13.9 | 25.2 | 0.00 | 0.00 | 0.00 | 51 | 973.0 |
| 20260504200040 | 77 | 208 | 15.6 | 23.5 | 0.00 | 0.00 | 0.00 | 52 | 973.1 |
| 20260504194530 | 76 | 210 | 16.5 | 23.5 | 0.00 | 0.00 | 0.00 | 50 | 973.3 |
| 20260504193027 | 76 | 200 | 18.2 | 29.5 | 0.00 | 0.00 | 0.00 | 52 | 973.7 |
| 20260504191538 | 76 | 209 | 18.2 | 24.3 | 0.00 | 0.00 | 0.00 | 52 | 973.9 |
| 20260504190024 | 75 | 217 | 14.8 | 22.6 | 0.00 | 0.00 | 0.00 | 52 | 973.9 |
| 20260504184524 | 76 | 227 | 18.2 | 23.5 | 0.00 | 0.00 | 0.00 | 53 | 973.9 |
| 20260504183035 | 75 | 215 | 13.0 | 23.5 | 0.00 | 0.00 | 0.00 | 56 | 974.2 |
| 20260504181523 | 74 | 202 | 13.0 | 21.7 | 0.00 | 0.00 | 0.00 | 57 | 974.3 |
| 20260504180019 | 74 | 202 | 13.9 | 20.9 | 0.00 | 0.00 | 0.00 | 55 | 974.4 |
| 20260504174515 | 74 | 205 | 10.4 | 20.9 | 0.00 | 0.00 | 0.00 | 58 | 974.4 |
| 20260504173007 | 73 | 229 | 13.9 | 19.1 | 0.00 | 0.00 | 0.00 | 57 | 974.7 |
| 20260504171506 | 72 | 213 | 9.6 | 19.1 | 0.00 | 0.00 | 0.00 | 59 | 974.9 |
| 20260504081517 | 50 | 190 | 6.1 | 10.4 | 0.00 | 0.00 | 0.00 | 78 | 977.8 |
| 20260504044558 | 48 | 184 | 4.3 | 7.0 | 0.00 | 0.00 | 0.00 | 83 | 979.8 |
| 20260504043052 | 48 | 180 | 4.3 | 7.8 | 0.00 | 0.00 | 0.00 | 83 | 979.9 |
| 20260504041545 | 47 | 175 | 4.3 | 6.1 | 0.00 | 0.00 | 0.00 | 85 | 980.0 |
| 20260504040054 | 47 | 169 | 0.9 | 2.6 | 0.00 | 0.00 | 0.00 | 85 | 980.1 |
| 20260504034555 | 47 | 169 | 1.7 | 5.2 | 0.00 | 0.00 | 0.00 | 84 | 980.3 |
| 20260504033054 | 48 | 174 | 1.7 | 6.1 | 0.00 | 0.00 | 0.00 | 83 | 980.4 |
| 20260504031539 | 48 | 165 | 2.6 | 5.2 | 0.00 | 0.00 | 0.00 | 82 | 980.4 |
| 20260504030044 | 48 | 168 | 3.5 | 6.1 | 0.00 | 0.00 | 0.00 | 82 | 980.7 |
| 20260504024536 | 48 | 155 | 3.5 | 7.0 | 0.00 | 0.00 | 0.00 | 82 | 980.8 |
| 20260504023040 | 48 | 133 | 4.3 | 7.0 | 0.00 | 0.00 | 0.00 | 82 | 980.8 |
| 20260504021535 | 48 | 150 | 3.5 | 7.0 | 0.00 | 0.00 | 0.00 | 82 | 980.9 |
| 20260504020037 | 48 | 138 | 4.3 | 7.8 | 0.00 | 0.00 | 0.00 | 83 | 980.9 |
| 20260504014544 | 49 | 158 | 4.3 | 8.7 | 0.00 | 0.00 | 0.00 | 83 | 980.7 |
| 20260504013038 | 49 | 144 | 4.3 | 7.8 | 0.00 | 0.00 | 0.00 | 82 | 980.8 |
| 20260504011532 | 49 | 151 | 5.2 | 10.4 | 0.00 | 0.00 | 0.00 | 82 | 980.8 |